sat.trackr.live / text

‹ back to catalog

COSMOS 2611

NORAD 68759 · 2026-083G

PAYLOAD ACTIVE UNKNOWN

§ Identity

Operator
Country
CIS
Launch date
2026-04-16
Launch site
PLMSC
Launch vehicle
Mass (kg)
RCS (m²)

External: N2YO · Heavens-Above · Gunter

§ Orbital elements

Epoch: 2026-09-19T22:31:46.278912Z

Period
95.58 min
Inclination
97.8249°
Eccentricity
0.0012632
Mean motion
15.06520084 rev/d
Perigee alt
538.1 km
Apogee alt
555.6 km
Semi-major
6,925.0 km
B*
1.3389e-4
RAAN
41.6980°
Arg perigee
99.0486°
Mean anomaly
261.2171°
Rev number
2,345

§ Raw data

COSMOS 26111 68759U 26083G   26262.93873008  .00001916  00000+0  13389-3 0  99932 68759  97.8249  41.6980 0012632  99.0486 261.2171 15.06520084 23459

JSON: /api/v1/satellites/68759 · /tle

For live sub-satellite position, see the globe view (requires WebGL).

§ Visibility from observer

Set your observer location to see the next 7 days of passes ≥ 10°. The values pass through the URL so the page stays shareable.

No JS? Fill the form by hand. The geolocation button needs JavaScript.